EW0387 Weather Reports


Display with metric or nautical units.
time (UTC)temp
F
wind
direction
speed
MPH
gust
MPH
rain 1hr
in
rain 24hr
in
rain mn
in
humidity
%
barometer
mb
20260904154536 77 88 6.0 0.0 0.00 0.00 0.00 39 997.4
20260904153036 76 123 5.0 0.0 0.00 0.00 0.00 41 997.4
20260904151531 74 119 6.0 0.0 0.00 0.00 0.00 44 997.6
20260904150036 74 107 3.0 0.0 0.00 0.00 0.00 46 997.6
20260904144525 71 118 3.0 0.0 0.00 0.00 0.00 48 998.1
20260904143025 71 88 2.0 0.0 0.00 0.00 0.00 49 998.2
20260904141528 71 352 1.0 0.0 0.00 0.00 0.00 50 997.8
20260904140024 69 162 2.0 0.0 0.00 0.00 0.00 48 997.8
20260904134527 68 145 2.0 0.0 0.00 0.00 0.00 42 997.9
20260904133021 66 152 3.0 0.0 0.00 0.00 0.00 42 997.8
20260904131520 62 158 2.0 0.0 0.00 0.00 0.00 49 998.5
20260904130019 60 158 3.0 0.0 0.00 0.00 0.00 57 997.9
20260904124519 59 169 1.0 0.0 0.00 0.00 0.00 58 998.0
20260904123017 59 132 2.0 0.0 0.00 0.00 0.00 58 997.7
20260904121515 60 151 2.0 0.0 0.00 0.00 0.00 56 997.3
20260904120010 61 146 0.0 0.0 0.00 0.00 0.00 54 996.3
20260904114509 63 117 2.0 0.0 0.00 0.00 0.00 54 995.9
20260904113010 62 132 2.0 0.0 0.00 0.00 0.00 53 995.9
20260904111508 64 133 4.0 0.0 0.00 0.00 0.00 50 995.9
20260904110007 63 155 3.0 0.0 0.00 0.00 0.00 51 995.2
20260904104507 62 149 2.0 0.0 0.00 0.00 0.00 56 994.7
20260904103002 64 190 0.0 0.0 0.00 0.00 0.00 53 994.6
20260904101600 64 277 0.0 0.0 0.00 0.00 0.00 49 994.3
20260904100058 65 275 0.0 0.0 0.00 0.00 0.00 49 994.6
20260904094557 66 347 1.0 0.0 0.00 0.00 0.00 46 994.1
20260904093058 66 275 1.0 0.0 0.00 0.00 0.00 46 993.9
20260904091607 67 319 1.0 0.0 0.00 0.00 0.00 45 993.8
20260904090054 66 266 2.0 0.0 0.00 0.00 0.00 44 993.7
20260904084554 66 243 3.0 0.0 0.00 0.00 0.00 46 994.1
20260904083107 65 316 1.0 0.0 0.00 0.00 0.00 48 994.0
20260904081550 67 291 0.0 0.0 0.00 0.00 0.00 45 993.6
20260904080046 69 262 1.0 0.0 0.00 0.00 0.00 41 993.3
20260904074601 69 277 1.0 0.0 0.00 0.00 0.00 42 993.0
20260904073043 69 246 2.0 0.0 0.00 0.00 0.00 41 993.1
20260904071541 69 267 1.0 0.0 0.00 0.00 0.00 42 993.3
20260904070040 70 250 4.0 0.0 0.00 0.00 0.00 41 993.7
20260904064538 70 239 2.0 0.0 0.00 0.00 0.00 41 993.7
20260904063043 71 262 4.0 0.0 0.00 0.00 0.00 41 993.8
20260904061540 70 223 4.0 0.0 0.00 0.00 0.00 42 994.0
20260904060032 71 184 2.0 0.0 0.00 0.00 0.00 41 994.3
20260904054535 71 159 4.0 0.0 0.00 0.00 0.00 42 994.5
20260904053036 72 129 6.0 0.0 0.00 0.00 0.00 42 994.5
20260904051532 72 208 2.0 0.0 0.00 0.00 0.00 38 993.7
20260904050031 73 161 2.0 0.0 0.00 0.00 0.00 38 994.0
20260904044530 74 219 3.0 0.0 0.00 0.00 0.00 37 993.9
20260904043031 74 219 2.0 0.0 0.00 0.00 0.00 38 994.0
20260904041534 75 246 3.0 0.0 0.00 0.00 0.00 37 994.0
20260904040030 75 258 4.0 0.0 0.00 0.00 0.00 37 994.1
20260904034528 75 246 2.0 0.0 0.00 0.00 0.00 38 994.1
20260904033032 76 268 5.0 0.0 0.00 0.00 0.00 39 993.6
20260904031528 76 311 6.0 0.0 0.00 0.00 0.00 39 993.6
20260904030027 76 303 5.0 0.0 0.00 0.00 0.00 38 994.2
20260904024527 77 288 5.0 0.0 0.00 0.00 0.00 36 994.1
20260904023027 77 298 6.0 0.0 0.00 0.00 0.00 35 993.4
20260904021535 78 347 6.0 0.0 0.00 0.00 0.00 34 993.3
20260904020026 80 291 4.0 0.0 0.00 0.00 0.00 33 993.9
20260904014528 82 312 4.0 0.0 0.00 0.00 0.00 30 993.6
20260904013025 82 313 3.0 0.0 0.00 0.00 0.00 30 993.2
20260904011524 84 320 2.0 0.0 0.00 0.00 0.00 29 993.1
20260904010024 85 314 3.0 0.0 0.00 0.00 0.00 28 993.8
20260904004523 86 352 5.0 0.0 0.00 0.00 0.00 27 993.5
20260904003022 87 43 5.0 0.0 0.00 0.00 0.00 27 993.5
20260904001526 88 70 5.0 0.0 0.00 0.00 0.00 26 993.5
20260904000022 88 50 4.0 0.0 0.00 0.00 0.00 26 993.0
20260903234521 89 30 6.0 0.0 0.00 0.00 0.00 25 993.1
20260903233021 90 77 6.0 0.0 0.00 0.00 0.00 25 992.8
20260903231521 91 55 5.0 0.0 0.00 0.00 0.00 24 992.7
20260903230020 93 94 2.0 0.0 0.00 0.00 0.00 22 992.8
20260903224519 93 55 2.0 0.0 0.00 0.00 0.00 23 992.7
20260903223025 93 38 3.0 0.0 0.00 0.00 0.00 23 992.5
20260903221523 93 36 3.0 0.0 0.00 0.00 0.00 23 993.3
20260903220018 92 172 4.0 0.0 0.00 0.00 0.00 23 993.3
20260903214517 93 43 3.0 0.0 0.00 0.00 0.00 23 992.9
20260903213016 92 39 4.0 0.0 0.00 0.00 0.00 24 993.2
20260903211514 93 85 4.0 0.0 0.00 0.00 0.00 25 993.3
20260903210014 91 78 4.0 0.0 0.00 0.00 0.00 26 993.6
20260903204515 93 336 4.0 0.0 0.00 0.00 0.00 24 993.2
20260903203010 91 58 4.0 0.0 0.00 0.00 0.00 25 994.2
20260903201511 90 108 6.0 0.0 0.00 0.00 0.00 25 994.2
20260903200009 91 46 4.0 0.0 0.00 0.00 0.00 26 994.2
20260903194508 90 112 3.0 0.0 0.00 0.00 0.00 26 994.3
20260903193008 91 110 4.0 0.0 0.00 0.00 0.00 26 994.3
20260903191504 90 102 5.0 0.0 0.00 0.00 0.00 27 994.8
20260903190100 87 94 5.0 0.0 0.00 0.00 0.00 28 995.3
20260903184602 86 82 5.0 0.0 0.00 0.00 0.00 28 995.7
20260903183058 85 96 6.0 0.0 0.00 0.00 0.00 29 996.2
20260903181600 85 131 6.0 0.0 0.00 0.00 0.00 30 996.5
20260903180058 84 31 5.0 0.0 0.00 0.00 0.00 30 996.7
20260903174555 85 48 4.0 0.0 0.00 0.00 0.00 30 996.5
20260903173057 83 101 6.0 0.0 0.00 0.00 0.00 30 996.8
20260903171552 82 108 5.0 0.0 0.00 0.00 0.00 33 997.5
20260903170049 82 88 5.0 0.0 0.00 0.00 0.00 36 997.9
20260903164547 81 92 4.0 0.0 0.00 0.00 0.00 37 997.8
20260903163042 79 79 4.0 0.0 0.00 0.00 0.00 39 998.1
20260903161542 78 115 4.0 0.0 0.00 0.00 0.00 40 998.5
20260903160044 78 90 2.0 0.0 0.00 0.00 0.00 39 998.6